Location: White Ridge parking lot
(35.4984°N, 106.8413°W)
Time: 13:33:23
(UTC-06:00)

UWE-3 - Visible Passes

Search period start: 18 October 2019 00:00
Search period end: 28 October 2019 00:00
Orbit: 584 x 684 km, 97.6° (Epoch: 17 October)

Date Brightness Start Highest point End Pass type
(mag) Time Alt. Az. Time Alt. Az. Time Alt. Az.
18 Oct ? 19:28:13 10° WSW 19:29:49 12° W 19:31:24 10° WNW visible
19 Oct ? 05:43:04 10° ENE 05:44:50 12° E 05:46:35 10° ESE visible
20 Oct ? 06:03:11 10° NE 06:06:38 21° E 06:10:09 10° SE visible
21 Oct ? 06:24:12 10° NNE 06:28:25 37° E 06:32:40 10° SSE visible
21 Oct ? 18:54:35 10° SSW 18:58:08 28° W 19:01:44 10° NW visible
22 Oct ? 06:45:35 10° NNE 06:50:06 67° E 06:54:42 10° S visible
22 Oct ? 19:17:25 10° SW 19:19:55 16° W 19:22:28 10° NW visible
24 Oct ? 05:53:50 10° NE 05:56:51 17° E 05:59:53 10° SE visible
25 Oct ? 06:14:37 10° NE 06:18:39 30° E 06:22:42 10° SSE visible
25 Oct ? 18:44:28 10° SSW 18:48:17 36° W 18:52:12 10° NNW visible
26 Oct ? 06:35:53 10° NNE 06:40:22 53° E 06:44:54 10° S visible
26 Oct ? 19:06:58 10° SW 19:10:03 20° W 19:13:12 10° NW visible
27 Oct ? 19:30:43 10° WSW 19:31:54 11° W 19:33:04 10° WNW visible
